• în Republica Moldova
  • Lista ţărilor
  • Pe 7 zile
  • Temperatura apei
  • Hartă satelitară
  • Meteo pe hartă
  • Widget-uri
  • user-avatar
    Intrare

    Meteo pe oră la Derlo

    Astăzi, 21 Octombrie, Duminică

    Timp Temperatura Precipitaţii Vânt Presiune Umiditate
    00:00 +8°C° 0 mm 2 m/s 755 mmHg 74%
    01:00 +7°C° 0 mm 2 m/s 756 mmHg 75%
    02:00 +7°C° 0 mm 2 m/s 756 mmHg 76%
    03:00 +7°C° 0 mm 2 m/s 756 mmHg 77%
    04:00 +6°C° 0 mm 2 m/s 756 mmHg 78%
    05:00 +6°C° 0 mm 2 m/s 756 mmHg 80%
    06:00 +6°C° 0 mm 2 m/s 756 mmHg 80%
    07:00 +5°C° 0 mm 2 m/s 757 mmHg 81%
    08:00 +5°C° 0 mm 2 m/s 757 mmHg 82%
    09:00 +7°C° 0 mm 2 m/s 757 mmHg 75%
    10:00 +8°C° 0 mm 2 m/s 758 mmHg 68%
    11:00 +10°C° 0 mm 2 m/s 758 mmHg 61%
    12:00 +12°C° 0 mm 2 m/s 758 mmHg 58%
    13:00 +12°C° 0 mm 2 m/s 758 mmHg 56%
    14:00 +13°C° 0 mm 2 m/s 758 mmHg 53%
    15:00 +12°C° 0 mm 2 m/s 758 mmHg 56%
    16:00 +12°C° 0 mm 2 m/s 758 mmHg 60%
    17:00 +11°C° 0 mm 1 m/s 758 mmHg 63%
    18:00 +10°C° 0 mm 1 m/s 758 mmHg 67%
    19:00 +9°C° 0 mm 1 m/s 758 mmHg 70%
    20:00 +8°C° 0 mm 1 m/s 758 mmHg 74%
    21:00 +8°C° 0 mm 1 m/s 758 mmHg 75%
    22:00 +7°C° 0 mm 0 m/s 758 mmHg 77%
    23:00 +6°C° 0 mm 0 m/s 758 mmHg 79%

    Mâine, 22 Octombrie, Luni

    Timp Temperatura Precipitaţii Vânt Presiune Umiditate
    00:00 +6°C° 0 mm 0 m/s 758 mmHg 80%
    01:00 +6°C° 0 mm 0 m/s 758 mmHg 81%
    02:00 +6°C° 0 mm 1 m/s 758 mmHg 82%
    03:00 +6°C° 0 mm 1 m/s 758 mmHg 84%
    04:00 +6°C° 0 mm 1 m/s 758 mmHg 85%
    05:00 +6°C° 0 mm 1 m/s 758 mmHg 86%
    06:00 +6°C° 0 mm 1 m/s 758 mmHg 86%
    07:00 +6°C° 0 mm 1 m/s 757 mmHg 86%
    08:00 +6°C° 0 mm 1 m/s 757 mmHg 86%
    09:00 +8°C° 0 mm 1 m/s 757 mmHg 78%
    10:00 +8°C° 0 mm 2 m/s 757 mmHg 71%
    11:00 +10°C° 0 mm 2 m/s 757 mmHg 63%
    12:00 +12°C° 0 mm 2 m/s 757 mmHg 60%
    13:00 +12°C° 0 mm 3 m/s 756 mmHg 57%
    14:00 +12°C° 0 mm 3 m/s 755 mmHg 54%
    15:00 +11°C° 0 mm 3 m/s 755 mmHg 58%
    16:00 +11°C° 0 mm 3 m/s 754 mmHg 61%
    17:00 +10°C° 0 mm 2 m/s 754 mmHg 65%
    18:00 +9°C° 0 mm 3 m/s 754 mmHg 67%
    19:00 +9°C° 0 mm 3 m/s 754 mmHg 70%
    20:00 +8°C° 0 mm 3 m/s 754 mmHg 72%
    21:00 +8°C° 0.3 mm 3 m/s 753 mmHg 75%
    22:00 +8°C° 0.3 mm 3 m/s 753 mmHg 78%
    23:00 +7°C° 0.3 mm 4 m/s 753 mmHg 81%

    Poimâine, 23 Octombrie, Marţi

    Timp Temperatura Precipitaţii Vânt Presiune Umiditate
    00:00 +7°C° 0.4 mm 4 m/s 753 mmHg 82%
    01:00 +7°C° 0.4 mm 4 m/s 753 mmHg 83%
    02:00 +7°C° 0.4 mm 4 m/s 753 mmHg 83%
    03:00 +6°C° 0 mm 4 m/s 753 mmHg 85%
    04:00 +5°C° 0 mm 4 m/s 752 mmHg 87%
    05:00 +4°C° 0 mm 4 m/s 752 mmHg 88%
    06:00 +4°C° 0 mm 4 m/s 752 mmHg 88%
    07:00 +4°C° 0 mm 4 m/s 752 mmHg 87%
    08:00 +3°C° 0 mm 4 m/s 752 mmHg 87%
    09:00 +5°C° 0 mm 4 m/s 751 mmHg 81%
    10:00 +6°C° 0 mm 5 m/s 751 mmHg 74%
    11:00 +7°C° 0 mm 5 m/s 750 mmHg 68%
    12:00 +7°C° 0.1 mm 6 m/s 749 mmHg 66%
    13:00 +6°C° 0.1 mm 7 m/s 748 mmHg 64%
    14:00 +8°C° 0.1 mm 7 m/s 747 mmHg 63%
    15:00 +6°C° 0.2 mm 8 m/s 746 mmHg 66%
    16:00 +6°C° 0.2 mm 8 m/s 744 mmHg 69%
    17:00 +5°C° 0.2 mm 8 m/s 743 mmHg 72%
    18:00 +5°C° 0.8 mm 9 m/s 741 mmHg 74%
    19:00 +5°C° 0.8 mm 10 m/s 740 mmHg 76%
    20:00 +5°C° 0.8 mm 10 m/s 738 mmHg 78%
    21:00 +5°C° 1.5 mm 10 m/s 736 mmHg 80%
    22:00 +5°C° 1.5 mm 10 m/s 735 mmHg 82%
    23:00 +6°C° 1.5 mm 10 m/s 733 mmHg 83%

    24 Octombrie, Miercuri

    Timp Temperatura Precipitaţii Vânt Presiune Umiditate
    00:00 +6°C° 0.6 mm 10 m/s 732 mmHg 81%
    01:00 +6°C° 0.6 mm 9 m/s 731 mmHg 79%
    02:00 +6°C° 0.6 mm 9 m/s 730 mmHg 76%
    03:00 +6°C° 0.8 mm 9 m/s 731 mmHg 77%
    04:00 +6°C° 0.8 mm 9 m/s 731 mmHg 77%
    05:00 +6°C° 0.8 mm 9 m/s 731 mmHg 78%
    06:00 +5°C° 0.5 mm 9 m/s 732 mmHg 75%
    07:00 +3°C° 0.5 mm 9 m/s 733 mmHg 73%
    08:00 +2°C° 0.5 mm 8 m/s 733 mmHg 70%
    09:00 +3°C° 0.1 mm 9 m/s 734 mmHg 66%
    10:00 +3°C° 0.1 mm 10 m/s 734 mmHg 61%
    11:00 +3°C° 0.1 mm 10 m/s 735 mmHg 57%
    12:00 +3°C° 0.1 mm 10 m/s 735 mmHg 58%
    13:00 +3°C° 0.1 mm 10 m/s 735 mmHg 60%
    14:00 +3°C° 0.1 mm 10 m/s 735 mmHg 61%
    15:00 +3°C° 0.1 mm 10 m/s 735 mmHg 61%
    16:00 +3°C° 0.1 mm 10 m/s 735 mmHg 60%
    17:00 +3°C° 0.1 mm 11 m/s 735 mmHg 60%
    18:00 +3°C° 0.2 mm 11 m/s 735 mmHg 62%
    19:00 +3°C° 0.2 mm 11 m/s 736 mmHg 64%
    20:00 +3°C° 0.2 mm 12 m/s 736 mmHg 66%
    21:00 +3°C° 0.4 mm 11 m/s 736 mmHg 67%
    22:00 +3°C° 0.4 mm 11 m/s 737 mmHg 68%
    23:00 +3°C° 0.4 mm 11 m/s 737 mmHg 70%

    25 Octombrie, Joi

    Timp Temperatura Precipitaţii Vânt Presiune Umiditate
    00:00 +3°C° 0.1 mm 10 m/s 738 mmHg 70%
    01:00 +3°C° 0.1 mm 10 m/s 738 mmHg 71%
    02:00 +3°C° 0.1 mm 9 m/s 739 mmHg 72%
    03:00 +3°C° 0 mm 9 m/s 739 mmHg 72%
    04:00 +4°C° 0 mm 8 m/s 740 mmHg 73%
    05:00 +2°C° 0 mm 8 m/s 740 mmHg 73%
    06:00 +2°C° 0 mm 8 m/s 740 mmHg 74%
    07:00 +2°C° 0 mm 8 m/s 741 mmHg 76%
    08:00 +2°C° 0 mm 7 m/s 741 mmHg 77%
    09:00 +3°C° 0 mm 7 m/s 741 mmHg 73%
    10:00 +4°C° 0 mm 7 m/s 741 mmHg 68%
    11:00 +4°C° 0 mm 6 m/s 741 mmHg 64%
    12:00 +4°C° 0 mm 6 m/s 741 mmHg 63%
    13:00 +5°C° 0 mm 6 m/s 740 mmHg 62%
    14:00 +5°C° 0 mm 6 m/s 740 mmHg 61%
    15:00 +5°C° 0.2 mm 5 m/s 740 mmHg 68%
    16:00 +5°C° 0.2 mm 4 m/s 740 mmHg 74%
    17:00 +4°C° 0.2 mm 3 m/s 740 mmHg 81%
    18:00 +4°C° 0 mm 3 m/s 740 mmHg 84%
    19:00 +5°C° 0 mm 3 m/s 740 mmHg 87%
    20:00 +5°C° 0 mm 3 m/s 740 mmHg 89%
    21:00 +5°C° 0 mm 3 m/s 740 mmHg 91%
    22:00 +5°C° 0 mm 3 m/s 741 mmHg 93%
    23:00 +4°C° 0 mm 3 m/s 741 mmHg 95%

    26 Octombrie, Vineri

    Timp Temperatura Precipitaţii Vânt Presiune Umiditate
    00:00 +5°C° 0 mm 3 m/s 741 mmHg 94%
    01:00 +5°C° 0 mm 3 m/s 741 mmHg 94%
    02:00 +5°C° 0 mm 3 m/s 741 mmHg 93%
    03:00 +5°C° 0 mm 3 m/s 741 mmHg 93%
    04:00 +5°C° 0 mm 4 m/s 741 mmHg 93%
    05:00 +5°C° 0 mm 4 m/s 742 mmHg 93%
    06:00 +5°C° 0.1 mm 4 m/s 742 mmHg 92%
    07:00 +7°C° 0.1 mm 3 m/s 742 mmHg 91%
    08:00 +7°C° 0.1 mm 3 m/s 742 mmHg 91%
    09:00 +7°C° 0.3 mm 4 m/s 742 mmHg 91%
    10:00 +8°C° 0.3 mm 4 m/s 742 mmHg 90%
    11:00 +9°C° 0.3 mm 5 m/s 742 mmHg 90%
    12:00 +9°C° 0.3 mm 5 m/s 742 mmHg 88%
    13:00 +9°C° 0.3 mm 5 m/s 742 mmHg 86%
    14:00 +9°C° 0.3 mm 6 m/s 742 mmHg 84%
    15:00 +9°C° 0 mm 5 m/s 742 mmHg 84%
    16:00 +9°C° 0 mm 5 m/s 742 mmHg 84%
    17:00 +9°C° 0 mm 5 m/s 742 mmHg 84%
    18:00 +8°C° 0 mm 5 m/s 742 mmHg 82%
    19:00 +8°C° 0 mm 4 m/s 742 mmHg 81%
    20:00 +8°C° 0 mm 4 m/s 742 mmHg 79%
    21:00 +8°C° 0.1 mm 4 m/s 741 mmHg 80%
    22:00 +8°C° 0.1 mm 4 m/s 741 mmHg 81%
    23:00 +7°C° 0.1 mm 4 m/s 741 mmHg 82%
    Arată mai mult